Latest Weather Observations for Middle Point

IDD60801

Issued at 9:05 am CST Friday 31 October 2014 (issued every 30 minutes, with the page automatically refreshed every 10 minutes)

About weather observations | Map of weather stations | Latest weather observations for NT | Other Formats
Station Details ID: 014041 Name: MIDDLE POINT Lat: -12.61 Lon: 131.30 Height: 14.1 m
Data from the previous 72 hours. | See also: Recent months at Middle Point
Date/Time
CST
Temp
°C
App
Temp
°C
Dew
Point
Rel
Hum
%
Delta-T
°C
Wind Press
QNH
hPa
Press
MSL
hPa
Rain
since 9 am
mm
Dir
 
Spd
km/h
Gust
km/h
Spd
kts
Gust
kts
31/09:00am 29.5 31.3 19.5 55 6.5 NNW 9 15 5 8 1011.4 1011.2 0.0
31/08:30am 28.7 30.9 19.6 58 5.9 N 7 9 4 5 1011.4 1011.2 0.0
31/08:00am 27.2 30.1 21.0 69 4.1 N 7 9 4 5 1011.2 1011.0 0.0
31/07:30am 24.9 29.1 21.8 83 2.1 N 2 6 1 3 1010.9 1010.7 0.0
31/07:00am 21.6 24.6 20.1 91 1.0 N 4 6 2 3 1010.2 1010.1 0.0
31/06:30am 19.4 22.1 17.7 90 1.0 CALM 0 0 0 0 1009.7 1009.6 0.0
31/06:00am 19.6 22.3 17.7 89 1.2 CALM 0 0 0 0 1009.6 1009.5 0.0
31/05:30am 19.8 22.6 17.9 89 1.2 CALM 0 0 0 0 1009.3 1009.2 0.0
31/05:00am 19.9 22.7 17.9 88 1.2 CALM 0 0 0 0 1009.0 1008.9 0.0
31/04:30am 20.3 22.4 18.1 87 1.4 NNE 4 4 2 2 1008.8 1008.7 0.0
31/04:00am 20.5 22.3 18.3 87 1.4 NNE 6 6 3 3 1008.5 1008.4 0.0
31/03:30am 20.4 22.5 18.2 87 1.4 N 4 4 2 2 1008.3 1008.2 0.0
31/03:00am 21.0 24.1 18.6 86 1.5 CALM 0 4 0 2 1008.4 1008.3 0.0
31/02:30am 21.0 24.1 18.6 86 1.5 CALM 0 0 0 0 1008.6 1008.5 0.0
31/02:00am 21.7 24.1 18.7 83 1.9 NNE 4 4 2 2 1008.8 1008.7 0.0
31/01:30am 22.3 25.7 19.3 83 1.9 CALM 0 0 0 0 1008.9 1008.8 0.0
31/01:00am 22.7 25.9 18.9 79 2.4 CALM 0 0 0 0 1009.0 1008.9 0.0
31/12:30am 23.7 27.0 19.2 76 2.9 CALM 0 0 0 0 1009.1 1009.0 0.0
31/12:00am 23.6 26.9 19.1 76 2.9 SW 0 0 0 0 1009.3 1009.2 0.0
 
Date/Time
CST
Temp
°C
App
Temp
°C
Dew
Point
Rel
Hum
%
Delta-T
°C
Wind Press
QNH
hPa
Press
MSL
hPa
Rain
since 9 am
mm
Dir
 
Spd
km/h
Gust
km/h
Spd
kts
Gust
kts
30/11:30pm 24.8 27.9 19.4 72 3.5 SW 2 4 1 2 1009.5 1009.4 0.0
30/11:00pm 24.6 27.6 19.2 72 3.5 SW 2 4 1 2 1009.6 1009.5 0.0
30/10:30pm 25.1 27.9 19.7 72 3.5 WNW 4 4 2 2 1009.4 1009.3 0.0
30/10:00pm 25.6 28.2 20.4 73 3.4 NW 7 9 4 5 1009.1 1009.0 0.0
30/09:30pm 24.4 26.2 19.5 74 3.2 WNW 9 11 5 6 1008.9 1008.8 0.0
30/09:00pm 26.4 29.5 20.3 69 4.0 NNW 4 4 2 2 1008.6 1008.5 0.0
30/08:30pm 26.8 29.1 19.9 66 4.5 N 7 9 4 5 1008.1 1008.0 0.0
30/08:00pm 27.8 29.2 19.6 61 5.3 N 11 17 6 9 1007.9 1007.8 0.0
30/07:30pm 27.9 29.4 18.0 55 6.3 N 7 11 4 6 1007.8 1007.7 0.0
30/07:00pm 29.4 28.6 17.9 50 7.3 N 19 28 10 15 1007.5 1007.4 0.0
30/06:30pm 30.5 29.7 17.2 44 8.4 N 17 24 9 13 1007.3 1007.2 0.0
30/06:00pm 32.0 30.7 16.7 40 9.7 N 19 26 10 14 1007.1 1007.0 0.0
30/05:30pm 33.0 31.2 15.5 35 10.9 N 19 28 10 15 1007.0 1006.9 0.0
30/05:00pm 34.1 31.4 15.5 32 11.6 NNE 24 33 13 18 1007.0 1006.9 0.0
30/04:30pm 34.6 31.9 14.5 30 12.4 N 22 30 12 16 1006.9 1006.8 0.0
30/04:00pm 35.1 31.8 13.9 28 13.0 NNE 24 35 13 19 1006.9 1006.8 0.0
30/03:30pm 35.5 32.5 13.6 26 13.4 NNE 22 33 12 18 1007.2 1007.1 0.0
30/03:00pm 35.9 33.2 13.4 26 13.8 NNE 20 32 11 17 1007.4 1007.3 0.0
30/02:30pm 35.8 33.0 13.3 26 13.7 N 20 30 11 16 1007.7 1007.6 0.0
30/02:00pm 36.5 34.5 15.6 29 13.2 N 20 35 11 19 1008.0 1007.9 0.0
30/01:30pm 36.3 35.1 17.0 32 12.4 N 19 26 10 14 1008.4 1008.3 0.0
30/01:00pm 35.5 34.2 16.8 33 12.0 N 19 30 10 16 1008.9 1008.8 0.0
30/12:30pm 35.3 35.1 17.5 34 11.5 N 15 28 8 15 1009.5 1009.4 0.0
30/12:00pm 35.6 34.5 15.3 29 12.7 NE 15 22 8 12 1009.8 1009.7 0.0
30/11:30am 34.2 34.8 17.8 37 10.6 N 11 20 6 11 1010.2 1010.1 0.0
30/11:00am 34.0 35.7 19.3 42 9.7 N 9 20 5 11 1010.6 1010.5 0.0
30/10:30am 32.6 34.8 19.5 46 8.6 NW 7 15 4 8 1011.1 1010.9 0.0
30/10:00am 30.6 32.9 19.9 52 7.0 NNW 7 13 4 7 1011.4 1011.2 0.0
30/09:30am 30.6 33.7 21.1 57 6.4 NW 6 9 3 5 1011.6 1011.4 0.0
30/09:00am 29.1 32.3 21.6 64 5.0 N 7 13 4 7 1011.7 1011.5 0.0
30/08:30am 29.1 31.9 22.3 66 4.6 N 11 17 6 9 1011.7 1011.5 0.0
30/08:00am 27.9 31.4 22.2 71 3.8 N 7 13 4 7 1011.5 1011.3 0.0
30/07:30am 25.4 29.2 21.7 80 2.5 N 4 6 2 3 1011.3 1011.1 0.0
30/07:00am 21.7 25.6 20.3 92 0.9 CALM 0 0 0 0 1011.0 1010.8 0.0
30/06:30am 19.7 22.5 18.0 90 1.0 CALM 0 0 0 0 1010.5 1010.4 0.0
30/06:00am 19.6 22.3 17.7 89 1.2 CALM 0 0 0 0 1010.3 1010.2 0.0
30/05:30am 20.3 23.2 18.2 88 1.3 CALM 0 0 0 0 1009.9 1009.8 0.0
30/05:00am 20.4 23.3 18.3 88 1.3 CALM 0 0 0 0 1009.4 1009.3 0.0
30/04:30am 21.3 24.1 19.6 90 1.1 N 4 4 2 2 1009.4 1009.3 0.0
30/04:00am 21.0 23.8 18.8 87 1.4 N 2 4 1 2 1009.2 1009.1 0.0
30/03:30am 21.4 23.9 19.1 87 1.5 N 4 4 2 2 1009.2 1009.1 0.0
30/03:00am 21.5 23.7 19.1 86 1.5 N 6 6 3 3 1009.4 1009.3 0.0
30/02:30am 22.1 24.7 19.3 84 1.8 N 4 7 2 4 1009.8 1009.7 0.0
30/02:00am 22.1 25.1 19.3 84 1.8 N 2 4 1 2 1010.2 1010.1 0.0
30/01:30am 23.0 25.7 19.4 80 2.3 N 4 6 2 3 1010.7 1010.6 0.0
30/01:00am 24.5 27.5 20.8 80 2.4 NNE 6 7 3 4 1010.9 1010.7 0.0
30/12:30am 24.8 27.7 20.7 78 2.7 N 6 7 3 4 1010.9 1010.7 0.0
30/12:00am 23.9 26.8 19.8 78 2.6 WNW 4 7 2 4 1011.3 1011.1 0.0
 
Date/Time
CST
Temp
°C
App
Temp
°C
Dew
Point
Rel
Hum
%
Delta-T
°C
Wind Press
QNH
hPa
Press
MSL
hPa
Rain
since 9 am
mm
Dir
 
Spd
km/h
Gust
km/h
Spd
kts
Gust
kts
29/11:30pm 24.8 27.0 20.3 76 2.9 N 9 13 5 7 1011.5 1011.3 0.0
29/11:00pm 24.9 27.4 20.2 75 3.1 NE 7 9 4 5 1011.4 1011.2 0.0
29/10:30pm 24.7 27.1 17.9 66 4.3 E 2 4 1 2 1011.3 1011.1 0.0
29/10:00pm 25.3 28.2 18.2 64 4.5 CALM 0 0 0 0 1011.0 1010.8 0.0
29/09:30pm 25.5 27.8 17.7 62 4.9 NNE 2 4 1 2 1010.6 1010.5 0.0
29/09:00pm 25.2 27.1 17.7 63 4.7 NNE 4 9 2 5 1010.5 1010.4 0.0
29/08:30pm 25.7 27.6 17.6 61 5.1 NW 4 6 2 3 1010.0 1009.9 0.0
29/08:00pm 26.1 27.2 16.6 55 5.9 NW 6 7 3 4 1009.6 1009.5 0.0
29/07:30pm 27.8 28.6 16.4 50 7.1 N 7 11 4 6 1009.4 1009.3 0.0
29/07:00pm 29.3 29.0 16.5 46 8.0 N 13 19 7 10 1008.9 1008.8 0.0
29/06:30pm 30.6 30.6 16.2 41 9.0 N 11 17 6 9 1008.5 1008.4 0.0
29/06:00pm 32.0 31.0 16.7 40 9.7 N 17 24 9 13 1008.1 1008.0 0.0
29/05:30pm 33.4 31.5 15.8 34 11.0 N 20 28 11 15 1007.7 1007.6 0.0
29/05:00pm 34.6 32.8 16.0 33 11.7 N 20 28 11 15 1007.5 1007.4 0.0
29/04:30pm 36.4 34.8 16.0 29 13.0 N 19 22 10 12 1007.3 1007.2 0.0
29/04:00pm 36.5 35.9 16.6 30 12.7 N 15 22 8 12 1007.5 1007.4 0.0
29/03:30pm 36.4 35.0 16.5 30 12.7 N 19 26 10 14 1007.7 1007.6 0.0
29/03:00pm 36.4 34.6 17.0 31 12.5 NNW 22 32 12 17 1007.9 1007.8 0.0
29/02:30pm 36.8 35.2 16.4 30 13.1 N 20 28 11 15 1008.3 1008.2 0.0
29/02:00pm 36.7 35.0 16.3 30 13.0 N 20 32 11 17 1008.6 1008.5 0.0
29/01:30pm 38.3 34.3 10.6 19 16.4 E 22 32 12 17 1009.1 1009.0 0.0
29/01:00pm 37.1 34.3 12.5 23 14.9 NE 19 26 10 14 1009.8 1009.7 0.0
29/12:48pm 37.6 33.4 13.6 24 14.8 E 28 50 15 27 1010.0 1009.9 0.0
29/12:30pm 36.0 34.6 13.5 26 13.8 ESE 13 30 7 16 1010.5 1010.4 0.0
29/12:00pm 35.2 34.4 15.0 30 12.6 E 13 26 7 14 1011.3 1011.1 0.0
29/11:30am 34.6 34.1 16.0 33 11.7 SE 13 19 7 10 1011.7 1011.5 0.0
29/11:00am 33.0 34.1 17.2 39 10.1 ESE 7 19 4 10 1012.3 1012.1 0.0
29/10:30am 32.5 33.4 17.5 40 9.6 NE 9 20 5 11 1012.8 1012.6 0.0
29/10:00am 31.7 32.3 18.7 46 8.4 SE 13 20 7 11 1013.0 1012.8 0.0
29/09:30am 30.2 30.8 18.6 49 7.5 NE 13 19 7 10 1013.3 1013.1 0.0
29/09:00am 30.4 31.6 19.1 50 7.4 NE 11 20 6 11 1013.4 1013.2 0.0
29/08:30am 29.2 30.7 18.9 53 6.7 NE 9 17 5 9 1012.9 1012.7 0.0
29/08:00am 28.0 30.3 19.8 61 5.3 NE 7 13 4 7 1012.7 1012.5 0.0
29/07:30am 26.0 28.9 20.6 72 3.5 ENE 6 9 3 5 1012.6 1012.4 0.0
29/07:00am 21.3 24.7 19.4 89 1.2 CALM 0 4 0 2 1012.2 1012.0 0.0
29/06:30am 19.6 22.2 17.6 88 1.2 CALM 0 0 0 0 1011.9 1011.7 0.0
29/06:00am 20.5 23.4 18.3 87 1.4 CALM 0 2 0 1 1011.7 1011.5 0.0
29/05:30am 20.3 22.7 17.9 86 1.5 N 2 6 1 3 1011.2 1011.0 0.0
29/05:00am 21.7 23.8 19.4 87 1.5 NE 7 9 4 5 1011.1 1010.9 0.0
29/04:30am 21.0 23.1 18.2 84 1.7 NE 4 6 2 3 1010.9 1010.7 0.0
29/04:00am 21.6 23.6 18.8 84 1.8 NNE 6 7 3 4 1010.5 1010.4 0.0
29/03:30am 21.3 23.1 18.3 83 1.9 N 6 7 3 4 1010.4 1010.3 0.0
29/03:00am 21.1 22.8 18.1 83 1.9 N 6 6 3 3 1010.4 1010.3 0.0
29/02:30am 21.4 23.2 18.2 82 2.0 N 6 7 3 4 1010.6 1010.5 0.0
29/02:00am 21.2 24.1 18.2 83 1.9 CALM 0 0 0 0 1010.9 1010.7 0.0
29/01:30am 21.2 23.8 17.4 79 2.3 CALM 0 2 0 1 1011.0 1010.8 0.0
29/01:00am 22.0 24.1 18.2 79 2.4 N 4 6 2 3 1011.4 1011.2 0.0
29/12:30am 22.5 25.1 17.4 73 3.2 CALM 0 0 0 0 1011.5 1011.3 0.0
29/12:00am 22.6 25.4 17.9 75 2.9 CALM 0 0 0 0 1011.5 1011.3 0.0
 
Date/Time
CST
Temp
°C
App
Temp
°C
Dew
Point
Rel
Hum
%
Delta-T
°C
Wind Press
QNH
hPa
Press
MSL
hPa
Rain
since 9 am
mm
Dir
 
Spd
km/h
Gust
km/h
Spd
kts
Gust
kts
28/11:30pm 22.1 24.9 17.9 77 2.6 CALM 0 0 0 0 1011.5 1011.3 0.0
28/11:00pm 22.0 24.6 17.4 75 2.8 CALM 0 0 0 0 1011.2 1011.0 0.0
28/10:30pm 23.2 25.3 18.1 73 3.2 NE 4 6 2 3 1011.1 1010.9 0.0
28/10:00pm 23.9 26.5 17.4 67 4.0 CALM 0 4 0 2 1010.6 1010.5 0.0
28/09:30pm 24.4 27.0 17.6 66 4.2 CALM 0 0 0 0 1010.2 1010.1 0.0
28/09:00pm 25.3 27.4 18.0 64 4.6 NNW 4 4 2 2 1010.1 1010.0 0.0
28/08:30pm 25.4 26.6 17.3 61 5.1 WNW 7 9 4 5 1009.5 1009.4 0.0
28/08:00pm 26.7 27.8 17.2 56 5.9 N 7 9 4 5 1009.0 1008.9 0.0
28/07:30pm 28.0 28.3 16.9 51 6.9 N 11 13 6 7 1008.6 1008.5 0.0
28/07:00pm 28.8 29.1 16.0 45 7.9 N 9 11 5 6 1008.1 1008.0 0.0
28/06:30pm 30.8 30.5 16.4 42 9.0 N 13 19 7 10 1007.9 1007.8 0.0
28/06:00pm 32.1 31.3 17.2 41 9.5 N 17 22 9 12 1007.4 1007.3 0.0
28/05:30pm 33.3 31.7 16.6 36 10.6 N 20 28 11 15 1007.0 1006.9 0.0
28/05:00pm 34.7 33.5 17.0 35 11.3 NNE 19 24 10 13 1006.9 1006.8 0.0
28/04:30pm 35.0 33.5 16.3 32 11.9 NNE 19 24 10 13 1006.8 1006.7 0.0
28/04:00pm 36.4 35.7 16.5 30 12.7 N 15 24 8 13 1006.9 1006.8 0.0
28/03:30pm 36.0 33.9 16.2 31 12.6 N 22 33 12 18 1007.1 1007.0 0.0
28/03:00pm 36.6 34.7 15.1 27 13.5 NE 19 30 10 16 1007.3 1007.2 0.0
28/02:30pm 38.0 36.5 15.2 26 14.4 NE 17 22 9 12 1007.5 1007.4 0.0
28/02:00pm 38.3 32.9 8.1 16 17.2 ENE 26 35 14 19 1007.9 1007.8 0.0
28/01:51pm 38.5 32.2 7.3 15 17.6 E 30 48 16 26 1008.1 1008.0 0.0
28/01:30pm 37.9 33.8 8.6 17 16.8 E 20 39 11 21 1008.5 1008.4 0.0
28/01:00pm 38.1 33.1 9.6 18 16.6 ESE 26 35 14 19 1009.2 1009.1 0.0
28/12:30pm 36.8 33.3 12.3 23 14.8 E 22 37 12 20 1009.9 1009.8 0.0
28/12:00pm 35.2 34.4 13.9 27 13.1 E 11 20 6 11 1010.5 1010.4 0.0
28/11:30am 33.8 33.8 16.2 35 11.1 NNE 11 20 6 11 1011.0 1010.8 0.0
28/11:00am 33.0 34.8 18.4 42 9.5 NNW 6 9 3 5 1011.3 1011.1 0.0
28/10:30am 31.5 33.3 18.8 46 8.3 NNE 7 11 4 6 1011.8 1011.6 0.0
28/10:00am 32.0 33.9 18.6 45 8.7 E 6 9 3 5 1012.2 1012.0 0.0
28/09:30am 30.2 32.7 19.9 54 6.8 E 6 9 3 5 1012.6 1012.4 0.0

Other Formats:

Comma delimited format used in spreadsheet applications
http://www.bom.gov.au/fwo/IDD60801/IDD60801.95121.axf

JavaScript Object Notation format (JSON) in row-major order
http://www.bom.gov.au/fwo/IDD60801/IDD60801.95121.json